Location: Newark
(34.1333°N, 7.9667°W)
Time: 00:33:59
(UTC+00:00)

Transit 2A - Pass Details

Date: 17 June 2021
Orbit: 598 x 960 km, 66.7° (Epoch: 24 July)

Event Time Altitude Azimuth Distance (km) Brightness Sun altitude
Rises 02:24:32 0° 340° (NNW) 3,084 9.7 -26.6°
Reaches altitude 10° 02:26:51 10° 346° (NNW) 2,216 8.9 -26.4°
Maximum altitude 02:31:46 48° 61° (ENE) 1,003 6.8 -25.9°
Enters shadow 02:36:28 14° 133° (SE) 2,186 8.2 -25.4°
Drops below altitude 10° 02:37:10 10° 135° (SE) 2,442 - -25.3°
Sets 02:39:50 0° 141° (SE) 3,431 - -25.0°
